sat.trackr.live / text

‹ back to catalog

YAOGAN-30 08A

NORAD 46807 · 2020-076A

PAYLOAD ACTIVE UNKNOWN

§ Identity

Operator
Country
PRC
Launch date
2020-10-26
Launch site
XICLF
Launch vehicle
Mass (kg)
RCS (m²)

External: N2YO · Heavens-Above · Gunter

§ Orbital elements

Epoch: 2026-09-20T04:14:27.494304Z

Period
95.81 min
Inclination
34.9933°
Eccentricity
0.0000848
Mean motion
15.03036723 rev/d
Perigee alt
557.0 km
Apogee alt
558.1 km
Semi-major
6,935.7 km
B*
1.3499e-4
RAAN
232.0842°
Arg perigee
258.5959°
Mean anomaly
101.4654°
Rev number
32,241

§ Raw data

YAOGAN-30 08A1 46807U 20076A   26263.17670711  .00001826  00000+0  13499-3 0  99942 46807  34.9933 232.0842 0000848 258.5959 101.4654 15.03036723322415

JSON: /api/v1/satellites/46807 · /tle

For live sub-satellite position, see the globe view (requires WebGL).

§ Visibility from observer

Set your observer location to see the next 7 days of passes ≥ 10°. The values pass through the URL so the page stays shareable.

No JS? Fill the form by hand. The geolocation button needs JavaScript.